Regional Weather Roundup
Issued by NWS

Home | Current Version | Previous Version | Graphics & Text | Print | Product List | Glossary On
Versions: 1 2 3 4 5 6 7 8 9 10 11 12 13 14 15 16 17 18 19 20 21 22 23 24 25 26 27 28 29 30 31 32 33 34 35 36 37 38 39 40 41 42 43 44 45 46 47 48 49 50
000
ASUS44 KMEG 191400
RWRTN
TENNESSEE HOURLY STATE WEATHER ROUNDUP
NATIONAL WEATHER SERVICE MEMPHIS TN
900 AM CDT FRI SEP 19 2014

TNZ002-004-019-021-049-052-054-088>092-191500-
WEST TENNESSEE

CITY           SKY/WX    TMP DP  RH WIND       PRES   REMARKS
MEMPHIS INTL   MOSUNNY   70  65  84 E3        30.03S
NWS MEMPHIS      N/A     67 N/A N/A MISG        N/A
JACKSON        SUNNY     67  61  81 SE5       30.05R
DYERSBURG      SUNNY     64  54  68 E5        30.06S
UNION CITY     SUNNY     64  57  77 E5        30.05S
PARIS          SUNNY     63  57  82 E6        30.07S
SAVANNAH       SUNNY     66  66 100 S3        30.05S
$$

TNZ008-025-027-028-033-062-065-066-191500-
NORTH MIDDLE TENNESSEE

CITY           SKY/WX    TMP DP  RH WIND       PRES   REMARKS
NASHVILLE      SUNNY     67  60  78 E3        30.08R
CLARKSVILLE    SUNNY     64  57  78 E6        30.08R
COOKEVILLE     SUNNY     70  63  78 CALM      30.08S
CROSSVILLE     SUNNY     68  56  65 SE5       30.13S
$$

TNZ061-075-076-078-094-096-097-191500-
SOUTH MIDDLE TENNESSEE

CITY           SKY/WX    TMP DP  RH WIND       PRES   REMARKS
SHELBYVILLE    SUNNY     70  63  78 E3        30.08R
$$

TNZ017-018-042-046-047-191500-
NORTHEAST TENNESSEE

CITY           SKY/WX    TMP DP  RH WIND       PRES   REMARKS
TRI CITIES     MOSUNNY   66  57  72 CALM      30.15R
ELIZABETHTON   SUNNY     70  59  68 E10       30.15R
$$

TNZ012-013-036-069-073-074-191500-
CENTRAL EAST TENNESSEE

CITY           SKY/WX    TMP DP  RH WIND       PRES   REMARKS
KNOXVILLE      MOSUNNY   66  58  75 N6        30.10S
OAK RIDGE      SUNNY     68  58  70 VRB3      30.12F
GATLINBURG     SUNNY     64  57  77 CALM      30.11S
$$

TNZ083-085-099-191500-
SOUTHEAST TENNESSEE

CITY           SKY/WX    TMP DP  RH WIND       PRES   REMARKS
CHATTANOOGA    PTSUNNY   68  58  70 NE6       30.11R
$$

SKY/WX REPORTED AS FAIR MEANS FEW OR NO CLOUDS BELOW
12 THOUSAND FEET.



USA.gov is the U.S. government's official web portal to all federal, state and local government web resources and services.